Data supplied by UK-AIR on 17/5/2022
All Data GMT hour ending 
Status: R =Ratified P=Provisional,P*=As supplied
,,Bath A4 Roadside,,,,,,,,,,,,,,,,,,,,,,,
Date,time,"Nitric oxide",status,unit,"Nitrogen dioxide",status,unit,"Nitrogen oxides as nitrogen dioxide",status,unit
 
01-01-2021,01:00,48.27886,R,ugm-3,29.36199,R,ugm-3,103.38854,R,ugm-3
01-01-2021,02:00,33.03780,R,ugm-3,41.27550,R,ugm-3,91.93275,R,ugm-3
01-01-2021,03:00,34.08330,R,ugm-3,42.03518,R,ugm-3,94.29551,R,ugm-3
01-01-2021,04:00,34.43180,R,ugm-3,39.62136,R,ugm-3,92.41604,R,ugm-3
01-01-2021,05:00,23.80255,R,ugm-3,42.81674,R,ugm-3,79.31348,R,ugm-3
01-01-2021,06:00,22.65250,R,ugm-3,41.30449,R,ugm-3,76.03783,R,ugm-3
01-01-2021,07:00,25.89355,R,ugm-3,39.87909,R,ugm-3,79.58197,R,ugm-3
01-01-2021,08:00,35.75610,R,ugm-3,42.37001,R,ugm-3,97.19525,R,ugm-3
01-01-2021,09:00,43.10945,R,ugm-3,42.42552,R,ugm-3,108.52575,R,ugm-3
01-01-2021,10:00,31.64380,R,ugm-3,41.42607,R,ugm-3,89.94588,R,ugm-3
01-01-2021,11:00,38.61380,R,ugm-3,43.41186,R,ugm-3,102.61886,R,ugm-3
01-01-2021,12:00,43.56249,R,ugm-3,43.18073,R,ugm-3,109.97562,R,ugm-3
01-01-2021,13:00,66.18014,R,ugm-3,45.71425,R,ugm-3,147.18905,R,ugm-3
01-01-2021,14:00,89.45994,R,ugm-3,52.70980,R,ugm-3,189.87979,R,ugm-3
01-01-2021,15:00,57.08429,R,ugm-3,47.20285,R,ugm-3,134.73088,R,ugm-3
01-01-2021,16:00,46.38534,R,ugm-3,42.98725,R,ugm-3,114.11045,R,ugm-3
01-01-2021,17:00,43.28369,R,ugm-3,39.79559,R,ugm-3,106.16299,R,ugm-3
01-01-2021,18:00,23.07070,R,ugm-3,29.27906,R,ugm-3,64.65364,R,ugm-3
01-01-2021,19:00,15.89160,R,ugm-3,20.68671,R,ugm-3,45.05349,R,ugm-3
01-01-2021,20:00,14.77640,R,ugm-3,20.73199,R,ugm-3,43.38882,R,ugm-3
01-01-2021,21:00,15.09005,R,ugm-3,20.03627,R,ugm-3,43.17402,R,ugm-3
01-01-2021,22:00,6.93515,R,ugm-3,14.65850,R,ugm-3,25.29224,R,ugm-3
01-01-2021,23:00,13.73090,R,ugm-3,19.43532,R,ugm-3,40.48907,R,ugm-3
01-01-2021,24:00,10.03680,R,ugm-3,13.50054,R,ugm-3,28.89008,R,ugm-3
02-01-2021,01:00,,,,,,,,,
02-01-2021,02:00,4.87556,R,ugm-3,9.30394,R,ugm-3,16.77969,R,ugm-3
02-01-2021,03:00,8.46257,R,ugm-3,9.40906,R,ugm-3,22.38482,R,ugm-3
02-01-2021,04:00,8.53222,R,ugm-3,8.92740,R,ugm-3,22.00996,R,ugm-3
02-01-2021,05:00,0.87064,R,ugm-3,5.68038,R,ugm-3,7.01534,R,ugm-3
02-01-2021,06:00,5.29346,R,ugm-3,9.87702,R,ugm-3,17.99354,R,ugm-3
02-01-2021,07:00,17.13409,R,ugm-3,21.44310,R,ugm-3,47.71501,R,ugm-3
02-01-2021,08:00,51.78536,R,ugm-3,52.38886,R,ugm-3,131.79197,R,ugm-3
02-01-2021,09:00,97.37180,R,ugm-3,56.39268,R,ugm-3,205.69401,R,ugm-3
02-01-2021,10:00,110.67509,R,ugm-3,52.54220,R,ugm-3,222.24164,R,ugm-3
02-01-2021,11:00,97.47627,R,ugm-3,63.30137,R,ugm-3,212.76290,R,ugm-3
02-01-2021,12:00,61.53647,R,ugm-3,48.95110,R,ugm-3,143.30570,R,ugm-3
02-01-2021,13:00,50.14856,R,ugm-3,49.32915,R,ugm-3,126.22254,R,ugm-3
02-01-2021,14:00,48.75555,R,ugm-3,45.09237,R,ugm-3,119.84983,R,ugm-3
02-01-2021,15:00,62.58123,R,ugm-3,60.57654,R,ugm-3,156.53309,R,ugm-3
02-01-2021,16:00,71.91443,R,ugm-3,55.47681,R,ugm-3,165.74407,R,ugm-3
02-01-2021,17:00,61.39717,R,ugm-3,60.67841,R,ugm-3,154.81942,R,ugm-3
02-01-2021,18:00,104.16275,R,ugm-3,68.15064,R,ugm-3,227.86463,R,ugm-3
02-01-2021,19:00,78.28748,R,ugm-3,56.36183,R,ugm-3,176.40096,R,ugm-3
02-01-2021,20:00,28.17374,R,ugm-3,40.23520,R,ugm-3,83.43433,R,ugm-3
02-01-2021,21:00,32.97965,R,ugm-3,42.77341,R,ugm-3,93.34149,R,ugm-3
02-01-2021,22:00,46.56155,R,ugm-3,47.86738,R,ugm-3,119.26076,R,ugm-3
02-01-2021,23:00,15.77590,R,ugm-3,29.36282,R,ugm-3,53.55220,R,ugm-3
02-01-2021,24:00,12.50232,R,ugm-3,23.72537,R,ugm-3,42.89532,R,ugm-3
03-01-2021,01:00,10.85785,R,ugm-3,21.44737,R,ugm-3,38.09583,R,ugm-3
03-01-2021,02:00,2.01845,R,ugm-3,15.73978,R,ugm-3,19.29714,R,ugm-3
03-01-2021,03:00,3.23647,R,ugm-3,16.45303,R,ugm-3,21.41555,R,ugm-3
03-01-2021,04:00,4.03689,R,ugm-3,13.94401,R,ugm-3,20.13383,R,ugm-3
03-01-2021,05:00,1.67044,R,ugm-3,8.81404,R,ugm-3,11.37534,R,ugm-3
03-01-2021,06:00,6.68175,R,ugm-3,9.14094,R,ugm-3,19.38615,R,ugm-3
03-01-2021,07:00,2.26205,R,ugm-3,8.54778,R,ugm-3,12.01621,R,ugm-3
03-01-2021,08:00,6.26414,R,ugm-3,12.07770,R,ugm-3,21.68258,R,ugm-3
03-01-2021,09:00,12.56309,R,ugm-3,19.93641,R,ugm-3,39.19954,R,ugm-3
03-01-2021,10:00,14.16392,R,ugm-3,21.86107,R,ugm-3,43.57878,R,ugm-3
03-01-2021,11:00,32.32993,R,ugm-3,33.15305,R,ugm-3,82.72492,R,ugm-3
03-01-2021,12:00,30.34629,R,ugm-3,29.35871,R,ugm-3,75.88903,R,ugm-3
03-01-2021,13:00,35.18360,R,ugm-3,30.70009,R,ugm-3,84.64751,R,ugm-3
03-01-2021,14:00,37.16724,R,ugm-3,31.77075,R,ugm-3,88.75973,R,ugm-3
03-01-2021,15:00,28.43224,R,ugm-3,25.72467,R,ugm-3,69.32017,R,ugm-3
03-01-2021,16:00,33.37396,R,ugm-3,39.45623,R,ugm-3,90.62892,R,ugm-3
03-01-2021,17:00,45.65863,R,ugm-3,35.41328,R,ugm-3,105.42220,R,ugm-3
03-01-2021,18:00,33.02595,R,ugm-3,36.09124,R,ugm-3,86.73032,R,ugm-3
03-01-2021,19:00,26.62260,R,ugm-3,30.31520,R,ugm-3,71.13596,R,ugm-3
03-01-2021,20:00,16.32157,R,ugm-3,23.46602,R,ugm-3,48.49208,R,ugm-3
03-01-2021,21:00,9.32661,R,ugm-3,15.01895,R,ugm-3,29.31955,R,ugm-3
03-01-2021,22:00,6.68175,R,ugm-3,13.14634,R,ugm-3,23.39155,R,ugm-3
03-01-2021,23:00,7.89978,R,ugm-3,13.68197,R,ugm-3,25.79479,R,ugm-3
03-01-2021,24:00,3.13207,R,ugm-3,6.83993,R,ugm-3,11.64237,R,ugm-3
04-01-2021,01:00,2.45752,R,ugm-3,7.45166,R,ugm-3,11.21980,R,ugm-3
04-01-2021,02:00,0.90418,R,ugm-3,4.40082,R,ugm-3,5.96496,R,ugm-3
04-01-2021,03:00,1.49538,R,ugm-3,3.67208,R,ugm-3,5.96496,R,ugm-3
04-01-2021,04:00,1.49538,R,ugm-3,4.25792,R,ugm-3,6.55080,R,ugm-3
04-01-2021,05:00,0.90418,R,ugm-3,3.24710,R,ugm-3,4.63349,R,ugm-3
04-01-2021,06:00,8.90270,R,ugm-3,12.76561,R,ugm-3,26.41624,R,ugm-3
04-01-2021,07:00,18.11839,R,ugm-3,20.79064,R,ugm-3,48.57179,R,ugm-3
04-01-2021,08:00,55.18981,R,ugm-3,40.10831,R,ugm-3,124.73150,R,ugm-3
04-01-2021,09:00,55.95488,R,ugm-3,38.18959,R,ugm-3,123.98588,R,ugm-3
04-01-2021,10:00,43.26157,R,ugm-3,33.89908,R,ugm-3,100.23257,R,ugm-3
04-01-2021,11:00,49.20830,R,ugm-3,44.11375,R,ugm-3,119.56542,R,ugm-3
04-01-2021,12:00,41.80097,R,ugm-3,26.23255,R,ugm-3,90.32648,R,ugm-3
04-01-2021,13:00,24.89975,R,ugm-3,24.77251,R,ugm-3,62.95159,R,ugm-3
04-01-2021,14:00,28.13393,R,ugm-3,26.73711,R,ugm-3,69.87521,R,ugm-3
04-01-2021,15:00,36.20201,R,ugm-3,25.23098,R,ugm-3,80.73995,R,ugm-3
04-01-2021,16:00,31.22901,R,ugm-3,29.34106,R,ugm-3,77.22488,R,ugm-3
04-01-2021,17:00,33.17648,R,ugm-3,36.42085,R,ugm-3,87.29075,R,ugm-3
04-01-2021,18:00,29.83797,R,ugm-3,29.82296,R,ugm-3,75.57387,R,ugm-3
04-01-2021,19:00,22.70885,R,ugm-3,31.85994,R,ugm-3,66.67969,R,ugm-3
04-01-2021,20:00,14.01480,R,ugm-3,19.25372,R,ugm-3,40.74278,R,ugm-3
04-01-2021,21:00,15.89272,R,ugm-3,19.30351,R,ugm-3,43.67200,R,ugm-3
04-01-2021,22:00,7.19867,R,ugm-3,9.89280,R,ugm-3,20.93061,R,ugm-3
04-01-2021,23:00,5.42509,R,ugm-3,9.68304,R,ugm-3,18.00139,R,ugm-3
04-01-2021,24:00,4.13837,R,ugm-3,10.00497,R,ugm-3,16.35037,R,ugm-3
05-01-2021,01:00,2.08510,R,ugm-3,7.99177,R,ugm-3,11.18887,R,ugm-3
05-01-2021,02:00,1.48273,R,ugm-3,4.02910,R,ugm-3,6.30259,R,ugm-3
05-01-2021,03:00,1.39006,R,ugm-3,3.28599,R,ugm-3,5.41740,R,ugm-3
05-01-2021,04:00,1.18155,R,ugm-3,3.44637,R,ugm-3,5.25806,R,ugm-3
05-01-2021,05:00,1.87659,R,ugm-3,3.81468,R,ugm-3,6.69208,R,ugm-3
05-01-2021,06:00,4.86522,R,ugm-3,8.04872,R,ugm-3,15.50862,R,ugm-3
05-01-2021,07:00,13.55312,R,ugm-3,17.51239,R,ugm-3,38.29354,R,ugm-3
05-01-2021,08:00,,,,,,,,,
05-01-2021,09:00,,,,,,,,,
05-01-2021,10:00,,,,,,,,,
05-01-2021,11:00,56.05430,R,ugm-3,40.66958,R,ugm-3,126.61831,R,ugm-3
05-01-2021,12:00,60.46775,R,ugm-3,50.31391,R,ugm-3,143.02983,R,ugm-3
05-01-2021,13:00,41.45864,R,ugm-3,37.29011,R,ugm-3,100.85914,R,ugm-3
05-01-2021,14:00,33.04875,R,ugm-3,31.06487,R,ugm-3,81.73892,R,ugm-3
05-01-2021,15:00,57.86138,R,ugm-3,51.65470,R,ugm-3,140.37425,R,ugm-3
05-01-2021,16:00,45.38557,R,ugm-3,36.04896,R,ugm-3,105.63919,R,ugm-3
05-01-2021,17:00,41.07637,R,ugm-3,28.95348,R,ugm-3,91.93637,R,ugm-3
05-01-2021,18:00,38.99127,R,ugm-3,29.81367,R,ugm-3,89.59945,R,ugm-3
05-01-2021,19:00,25.82043,R,ugm-3,27.70177,R,ugm-3,67.29254,R,ugm-3
05-01-2021,20:00,17.54955,R,ugm-3,26.57456,R,ugm-3,53.48349,R,ugm-3
05-01-2021,21:00,13.76163,R,ugm-3,25.58433,R,ugm-3,46.68519,R,ugm-3
05-01-2021,22:00,14.24815,R,ugm-3,24.14788,R,ugm-3,45.99474,R,ugm-3
05-01-2021,23:00,10.04321,R,ugm-3,20.61037,R,ugm-3,36.00974,R,ugm-3
05-01-2021,24:00,9.73044,R,ugm-3,19.60281,R,ugm-3,34.52261,R,ugm-3
06-01-2021,01:00,4.08031,R,ugm-3,14.07863,R,ugm-3,20.33502,R,ugm-3
06-01-2021,02:00,3.82529,R,ugm-3,19.10562,R,ugm-3,26.42844,R,ugm-3
06-01-2021,03:00,3.51231,R,ugm-3,10.66290,R,ugm-3,16.04837,R,ugm-3
06-01-2021,04:00,2.60815,R,ugm-3,11.09273,R,ugm-3,15.09184,R,ugm-3
06-01-2021,05:00,2.36473,R,ugm-3,10.40318,R,ugm-3,14.02904,R,ugm-3
06-01-2021,06:00,6.78120,R,ugm-3,11.23041,R,ugm-3,21.62810,R,ugm-3
06-01-2021,07:00,26.32496,R,ugm-3,24.30736,R,ugm-3,64.67173,R,ugm-3
06-01-2021,08:00,71.25474,R,ugm-3,42.14095,R,ugm-3,151.39669,R,ugm-3
06-01-2021,09:00,57.17071,R,ugm-3,37.16601,R,ugm-3,124.82654,R,ugm-3
06-01-2021,10:00,62.97820,R,ugm-3,41.17441,R,ugm-3,137.73963,R,ugm-3
06-01-2021,11:00,62.52612,R,ugm-3,39.05115,R,ugm-3,134.92320,R,ugm-3
06-01-2021,12:00,65.55158,R,ugm-3,39.24795,R,ugm-3,139.75896,R,ugm-3
06-01-2021,13:00,66.49051,R,ugm-3,41.52809,R,ugm-3,143.47878,R,ugm-3
06-01-2021,14:00,49.45058,R,ugm-3,32.05163,R,ugm-3,107.87479,R,ugm-3
06-01-2021,15:00,71.56771,R,ugm-3,41.97990,R,ugm-3,151.71553,R,ugm-3
06-01-2021,16:00,89.75523,R,ugm-3,46.29577,R,ugm-3,183.91854,R,ugm-3
06-01-2021,17:00,118.27104,R,ugm-3,61.29217,R,ugm-3,242.63857,R,ugm-3
06-01-2021,18:00,91.28535,R,ugm-3,43.20566,R,ugm-3,183.17458,R,ugm-3
06-01-2021,19:00,50.49384,R,ugm-3,43.79020,R,ugm-3,121.21300,R,ugm-3
06-01-2021,20:00,37.83560,R,ugm-3,39.28609,R,ugm-3,97.29987,R,ugm-3
06-01-2021,21:00,29.45474,R,ugm-3,41.18967,R,ugm-3,86.35297,R,ugm-3
06-01-2021,22:00,49.62445,R,ugm-3,49.79958,R,ugm-3,125.88935,R,ugm-3
06-01-2021,23:00,55.81447,R,ugm-3,46.47263,R,ugm-3,132.05362,R,ugm-3
06-01-2021,24:00,54.38868,R,ugm-3,40.74091,R,ugm-3,124.13572,R,ugm-3
07-01-2021,01:00,51.13157,R,ugm-3,32.11972,R,ugm-3,110.52036,R,ugm-3
07-01-2021,02:00,23.10664,R,ugm-3,46.23618,R,ugm-3,82.09274,R,ugm-3
07-01-2021,03:00,15.17243,R,ugm-3,30.38332,R,ugm-3,53.64739,R,ugm-3
07-01-2021,04:00,17.32998,R,ugm-3,32.23250,R,ugm-3,58.80477,R,ugm-3
07-01-2021,05:00,12.98009,R,ugm-3,31.83079,R,ugm-3,51.73331,R,ugm-3
07-01-2021,06:00,11.03133,R,ugm-3,31.52237,R,ugm-3,48.43684,R,ugm-3
07-01-2021,07:00,57.62741,R,ugm-3,39.88252,R,ugm-3,128.24332,R,ugm-3
07-01-2021,08:00,101.96154,R,ugm-3,49.58419,R,ugm-3,205.92304,R,ugm-3
07-01-2021,09:00,75.06179,R,ugm-3,41.48919,R,ugm-3,156.58233,R,ugm-3
07-01-2021,10:00,132.13241,R,ugm-3,49.47341,R,ugm-3,252.07362,R,ugm-3
07-01-2021,11:00,135.26434,R,ugm-3,56.26201,R,ugm-3,263.66443,R,ugm-3
07-01-2021,12:00,114.24564,R,ugm-3,47.01850,R,ugm-3,222.19271,R,ugm-3
07-01-2021,13:00,65.63122,R,ugm-3,43.08233,R,ugm-3,143.71546,R,ugm-3
07-01-2021,14:00,63.26487,R,ugm-3,46.44483,R,ugm-3,143.44962,R,ugm-3
07-01-2021,15:00,76.17536,R,ugm-3,44.83278,R,ugm-3,161.63337,R,ugm-3
07-01-2021,16:00,82.09122,R,ugm-3,58.51820,R,ugm-3,184.38965,R,ugm-3
07-01-2021,17:00,88.21587,R,ugm-3,56.78351,R,ugm-3,192.04596,R,ugm-3
07-01-2021,18:00,81.39524,R,ugm-3,56.82058,R,ugm-3,181.62487,R,ugm-3
07-01-2021,19:00,73.28703,R,ugm-3,52.71746,R,ugm-3,165.08935,R,ugm-3
07-01-2021,20:00,80.87325,R,ugm-3,48.36956,R,ugm-3,172.37348,R,ugm-3
07-01-2021,21:00,89.78183,R,ugm-3,49.70354,R,ugm-3,187.36710,R,ugm-3
07-01-2021,22:00,65.38762,R,ugm-3,50.95265,R,ugm-3,151.21227,R,ugm-3
07-01-2021,23:00,60.62014,R,ugm-3,41.51449,R,ugm-3,134.46408,R,ugm-3
07-01-2021,24:00,34.13798,R,ugm-3,35.59715,R,ugm-3,87.94131,R,ugm-3
08-01-2021,01:00,43.04117,R,ugm-3,37.20752,R,ugm-3,103.20306,R,ugm-3
08-01-2021,02:00,32.52464,R,ugm-3,30.19464,R,ugm-3,74.47643,R,ugm-3
08-01-2021,03:00,37.15609,R,ugm-3,27.45248,R,ugm-3,84.42436,R,ugm-3
08-01-2021,04:00,19.46603,R,ugm-3,29.14848,R,ugm-3,58.99598,R,ugm-3
08-01-2021,05:00,15.04351,R,ugm-3,29.06710,R,ugm-3,52.13350,R,ugm-3
08-01-2021,06:00,22.70456,R,ugm-3,30.72608,R,ugm-3,65.53926,R,ugm-3
08-01-2021,07:00,27.47531,R,ugm-3,29.79474,R,ugm-3,71.92296,R,ugm-3
08-01-2021,08:00,89.52981,R,ugm-3,46.78607,R,ugm-3,184.06319,R,ugm-3
08-01-2021,09:00,100.32492,R,ugm-3,54.81101,R,ugm-3,208.64041,R,ugm-3
08-01-2021,10:00,99.10612,R,ugm-3,49.12578,R,ugm-3,201.08637,R,ugm-3
08-01-2021,11:00,97.36497,R,ugm-3,52.48707,R,ugm-3,201.77794,R,ugm-3
08-01-2021,12:00,100.11598,R,ugm-3,53.69505,R,ugm-3,207.20408,R,ugm-3
08-01-2021,13:00,93.56927,R,ugm-3,58.89223,R,ugm-3,202.36311,R,ugm-3
08-01-2021,14:00,54.63721,R,ugm-3,39.26982,R,ugm-3,123.04571,R,ugm-3
08-01-2021,15:00,76.78461,R,ugm-3,51.53954,R,ugm-3,169.27429,R,ugm-3
08-01-2021,16:00,103.80722,R,ugm-3,57.45118,R,ugm-3,216.62003,R,ugm-3
08-01-2021,17:00,104.92155,R,ugm-3,56.80651,R,ugm-3,217.68398,R,ugm-3
08-01-2021,18:00,88.76370,R,ugm-3,55.24880,R,ugm-3,191.35124,R,ugm-3
08-01-2021,19:00,51.36385,R,ugm-3,48.43830,R,ugm-3,127.19511,R,ugm-3
08-01-2021,20:00,42.62329,R,ugm-3,42.58283,R,ugm-3,107.93763,R,ugm-3
08-01-2021,21:00,32.97733,R,ugm-3,45.82925,R,ugm-3,96.39379,R,ugm-3
08-01-2021,22:00,15.04351,R,ugm-3,27.84356,R,ugm-3,50.90996,R,ugm-3
08-01-2021,23:00,9.95936,R,ugm-3,21.32904,R,ugm-3,36.59985,R,ugm-3
08-01-2021,24:00,10.06383,R,ugm-3,19.41334,R,ugm-3,34.84433,R,ugm-3
09-01-2021,01:00,3.25236,R,ugm-3,11.90351,R,ugm-3,16.89040,R,ugm-3
09-01-2021,02:00,3.06651,R,ugm-3,12.89542,R,ugm-3,18.30976,R,ugm-3
09-01-2021,03:00,1.70749,R,ugm-3,9.89000,R,ugm-3,12.50812,R,ugm-3
09-01-2021,04:00,2.50897,R,ugm-3,12.86595,R,ugm-3,16.71297,R,ugm-3
09-01-2021,05:00,1.63780,R,ugm-3,11.11461,R,ugm-3,13.62586,R,ugm-3
09-01-2021,06:00,2.36958,R,ugm-3,11.37644,R,ugm-3,15.00974,R,ugm-3
09-01-2021,07:00,4.63462,R,ugm-3,12.85345,R,ugm-3,19.95976,R,ugm-3
09-01-2021,08:00,19.79295,R,ugm-3,28.99826,R,ugm-3,59.34703,R,ugm-3
09-01-2021,09:00,26.23960,R,ugm-3,31.30230,R,ugm-3,71.53579,R,ugm-3
09-01-2021,10:00,44.04628,R,ugm-3,30.66535,R,ugm-3,98.20203,R,ugm-3
09-01-2021,11:00,33.87103,R,ugm-3,33.75906,R,ugm-3,85.69392,R,ugm-3
09-01-2021,12:00,21.25651,R,ugm-3,25.05093,R,ugm-3,57.64379,R,ugm-3
09-01-2021,13:00,62.96806,R,ugm-3,45.93642,R,ugm-3,142.48609,R,ugm-3
09-01-2021,14:00,69.41471,R,ugm-3,41.58720,R,ugm-3,148.02160,R,ugm-3
09-01-2021,15:00,47.25218,R,ugm-3,44.32559,R,ugm-3,116.77792,R,ugm-3
09-01-2021,16:00,39.65559,R,ugm-3,37.92990,R,ugm-3,98.73429,R,ugm-3
09-01-2021,17:00,21.36105,R,ugm-3,29.78743,R,ugm-3,62.54059,R,ugm-3
09-01-2021,18:00,64.01346,R,ugm-3,58.54484,R,ugm-3,156.69744,R,ugm-3
09-01-2021,19:00,46.45070,R,ugm-3,36.50607,R,ugm-3,107.72949,R,ugm-3
09-01-2021,20:00,30.10758,R,ugm-3,28.83117,R,ugm-3,74.99548,R,ugm-3
09-01-2021,21:00,24.25333,R,ugm-3,32.59141,R,ugm-3,69.77933,R,ugm-3
09-01-2021,22:00,17.66730,R,ugm-3,34.17369,R,ugm-3,61.26317,R,ugm-3
09-01-2021,23:00,15.15833,R,ugm-3,35.83845,R,ugm-3,59.08090,R,ugm-3
09-01-2021,24:00,15.85527,R,ugm-3,37.85694,R,ugm-3,62.16801,R,ugm-3
10-01-2021,01:00,8.88036,R,ugm-3,23.37784,R,ugm-3,36.99421,R,ugm-3
10-01-2021,02:00,1.98762,R,ugm-3,12.48432,R,ugm-3,15.69236,R,ugm-3
10-01-2021,03:00,3.27783,R,ugm-3,17.18124,R,ugm-3,22.20718,R,ugm-3
10-01-2021,04:00,1.95275,R,ugm-3,14.68636,R,ugm-3,17.68053,R,ugm-3
10-01-2021,05:00,5.75364,R,ugm-3,19.45608,R,ugm-3,28.27820,R,ugm-3
10-01-2021,06:00,8.15970,R,ugm-3,22.15738,R,ugm-3,34.66875,R,ugm-3
10-01-2021,07:00,12.16982,R,ugm-3,27.83116,R,ugm-3,46.49128,R,ugm-3
10-01-2021,08:00,38.77603,R,ugm-3,37.30789,R,ugm-3,96.76364,R,ugm-3
10-01-2021,09:00,54.11906,R,ugm-3,39.02492,R,ugm-3,122.00632,R,ugm-3
10-01-2021,10:00,57.32715,R,ugm-3,40.97576,R,ugm-3,128.87617,R,ugm-3
10-01-2021,11:00,40.03137,R,ugm-3,39.00438,R,ugm-3,100.38495,R,ugm-3
10-01-2021,12:00,39.47344,R,ugm-3,39.00778,R,ugm-3,99.53288,R,ugm-3
10-01-2021,13:00,17.64449,R,ugm-3,31.68534,R,ugm-3,58.73984,R,ugm-3
10-01-2021,14:00,38.04375,R,ugm-3,46.84493,R,ugm-3,105.17787,R,ugm-3
10-01-2021,15:00,37.62530,R,ugm-3,49.56347,R,ugm-3,107.25480,R,ugm-3
10-01-2021,16:00,37.34634,R,ugm-3,48.18055,R,ugm-3,105.44414,R,ugm-3
10-01-2021,17:00,49.89973,R,ugm-3,54.92054,R,ugm-3,131.43239,R,ugm-3
10-01-2021,18:00,68.31137,R,ugm-3,59.81413,R,ugm-3,164.55676,R,ugm-3
10-01-2021,19:00,68.24163,R,ugm-3,59.81455,R,ugm-3,164.45025,R,ugm-3
10-01-2021,20:00,65.97504,R,ugm-3,61.85206,R,ugm-3,163.01238,R,ugm-3
10-01-2021,21:00,62.13928,R,ugm-3,63.15358,R,ugm-3,158.43248,R,ugm-3
10-01-2021,22:00,66.04478,R,ugm-3,88.47894,R,ugm-3,189.74620,R,ugm-3
10-01-2021,23:00,21.02693,R,ugm-3,39.12034,R,ugm-3,71.36119,R,ugm-3
10-01-2021,24:00,25.17652,R,ugm-3,42.07728,R,ugm-3,80.68074,R,ugm-3
11-01-2021,01:00,3.58248,R,ugm-3,14.39933,R,ugm-3,19.89239,R,ugm-3
11-01-2021,02:00,1.07009,R,ugm-3,8.02123,R,ugm-3,9.66202,R,ugm-3
11-01-2021,03:00,1.64003,R,ugm-3,7.92883,R,ugm-3,10.44351,R,ugm-3
11-01-2021,04:00,0.38384,R,ugm-3,5.37918,R,ugm-3,5.96772,R,ugm-3
11-01-2021,05:00,0.34894,R,ugm-3,5.64581,R,ugm-3,6.18085,R,ugm-3
11-01-2021,06:00,2.58218,R,ugm-3,9.30823,R,ugm-3,13.26752,R,ugm-3
11-01-2021,07:00,4.43158,R,ugm-3,12.06726,R,ugm-3,18.86225,R,ugm-3
11-01-2021,08:00,15.94670,R,ugm-3,26.11448,R,ugm-3,50.56575,R,ugm-3
11-01-2021,09:00,17.58674,R,ugm-3,40.86356,R,ugm-3,67.82951,R,ugm-3
11-01-2021,10:00,17.37737,R,ugm-3,34.31105,R,ugm-3,60.95598,R,ugm-3
11-01-2021,11:00,10.53809,R,ugm-3,21.61962,R,ugm-3,37.77779,R,ugm-3
11-01-2021,12:00,16.95864,R,ugm-3,30.15761,R,ugm-3,56.16049,R,ugm-3
11-01-2021,13:00,10.60787,R,ugm-3,22.57827,R,ugm-3,38.84345,R,ugm-3
11-01-2021,14:00,15.80713,R,ugm-3,28.24669,R,ugm-3,52.48395,R,ugm-3
11-01-2021,15:00,12.28280,R,ugm-3,19.58382,R,ugm-3,38.41719,R,ugm-3
11-01-2021,16:00,12.31770,R,ugm-3,27.36295,R,ugm-3,46.24982,R,ugm-3
11-01-2021,17:00,11.48023,R,ugm-3,27.68794,R,ugm-3,45.29072,R,ugm-3
11-01-2021,18:00,8.58400,R,ugm-3,17.95543,R,ugm-3,31.11739,R,ugm-3
11-01-2021,19:00,8.68869,R,ugm-3,15.71688,R,ugm-3,29.03934,R,ugm-3
11-01-2021,20:00,4.29200,R,ugm-3,10.68278,R,ugm-3,17.26376,R,ugm-3
11-01-2021,21:00,2.93112,R,ugm-3,7.76081,R,ugm-3,12.25514,R,ugm-3
11-01-2021,22:00,1.74472,R,ugm-3,6.22310,R,ugm-3,8.89829,R,ugm-3
11-01-2021,23:00,1.50046,R,ugm-3,3.66705,R,ugm-3,5.96772,R,ugm-3
11-01-2021,24:00,2.09366,R,ugm-3,3.61002,R,ugm-3,6.82025,R,ugm-3
12-01-2021,01:00,0.79148,R,ugm-3,2.12729,R,ugm-3,3.34087,R,ugm-3
12-01-2021,02:00,0.74492,R,ugm-3,1.70110,R,ugm-3,2.84330,R,ugm-3
12-01-2021,03:00,0.31426,R,ugm-3,1.54398,R,ugm-3,2.02585,R,ugm-3
12-01-2021,04:00,0.20951,R,ugm-3,1.06487,R,ugm-3,1.38611,R,ugm-3
12-01-2021,05:00,0.73328,R,ugm-3,2.02105,R,ugm-3,3.14540,R,ugm-3
12-01-2021,06:00,1.39672,R,ugm-3,3.98924,R,ugm-3,6.13086,R,ugm-3
12-01-2021,07:00,7.47248,R,ugm-3,14.61182,R,ugm-3,26.06946,R,ugm-3
12-01-2021,08:00,20.48529,R,ugm-3,29.15184,R,ugm-3,60.56218,R,ugm-3
12-01-2021,09:00,,,,,,,,,
12-01-2021,10:00,,,,,,,,,
12-01-2021,11:00,,,,,,,,,
12-01-2021,12:00,,,,,,,,,
12-01-2021,13:00,,,,,,,,,
12-01-2021,14:00,,,,,,,,,
12-01-2021,15:00,,,,,,,,,
12-01-2021,16:00,,,,,,,,,
12-01-2021,17:00,,,,,,,,,
12-01-2021,18:00,,,,,,,,,
12-01-2021,19:00,,,,,,,,,
12-01-2021,20:00,,,,,,,,,
12-01-2021,21:00,,,,,,,,,
12-01-2021,22:00,,,,,,,,,
12-01-2021,23:00,,,,,,,,,
12-01-2021,24:00,,,,,,,,,
13-01-2021,01:00,,,,,,,,,
13-01-2021,02:00,,,,,,,,,
13-01-2021,03:00,,,,,,,,,
13-01-2021,04:00,,,,,,,,,
13-01-2021,05:00,,,,,,,,,
13-01-2021,06:00,,,,,,,,,
13-01-2021,07:00,,,,,,,,,
13-01-2021,08:00,,,,,,,,,
13-01-2021,09:00,,,,,,,,,
13-01-2021,10:00,,,,,,,,,
13-01-2021,11:00,,,,,,,,,
13-01-2021,12:00,19.41637,R,ugm-3,22.57524,R,ugm-3,52.34659,R,ugm-3
13-01-2021,13:00,15.24537,R,ugm-3,22.97921,R,ugm-3,46.35511,R,ugm-3
13-01-2021,14:00,11.45731,R,ugm-3,17.19870,R,ugm-3,34.76634,R,ugm-3
13-01-2021,15:00,12.23356,R,ugm-3,17.99513,R,ugm-3,36.75298,R,ugm-3
13-01-2021,16:00,10.58792,R,ugm-3,20.13998,R,ugm-3,36.37457,R,ugm-3
13-01-2021,17:00,12.26460,R,ugm-3,23.43445,R,ugm-3,42.23992,R,ugm-3
13-01-2021,18:00,13.69289,R,ugm-3,25.35965,R,ugm-3,46.35511,R,ugm-3
13-01-2021,19:00,10.52583,R,ugm-3,20.47171,R,ugm-3,36.61108,R,ugm-3
13-01-2021,20:00,4.34695,R,ugm-3,11.12000,R,ugm-3,17.78523,R,ugm-3
13-01-2021,21:00,2.79447,R,ugm-3,5.83765,R,ugm-3,10.12244,R,ugm-3
13-01-2021,22:00,5.61998,R,ugm-3,9.78296,R,ugm-3,18.40014,R,ugm-3
13-01-2021,23:00,2.26662,R,ugm-3,3.43053,R,ugm-3,6.90597,R,ugm-3
13-01-2021,24:00,1.83193,R,ugm-3,3.38753,R,ugm-3,6.19645,R,ugm-3
14-01-2021,01:00,1.03555,R,ugm-3,1.69903,R,ugm-3,3.28685,R,ugm-3
14-01-2021,02:00,0.37280,R,ugm-3,2.33538,R,ugm-3,3.03401,R,ugm-3
14-01-2021,03:00,0.90092,R,ugm-3,4.11775,R,ugm-3,5.49915,R,ugm-3
14-01-2021,04:00,0.52813,R,ugm-3,2.41385,R,ugm-3,3.22364,R,ugm-3
14-01-2021,05:00,1.08732,R,ugm-3,4.78007,R,ugm-3,6.44728,R,ugm-3
14-01-2021,06:00,6.27540,R,ugm-3,11.23670,R,ugm-3,20.85884,R,ugm-3
14-01-2021,07:00,11.46348,R,ugm-3,20.58511,R,ugm-3,38.16220,R,ugm-3
14-01-2021,08:00,26.84131,R,ugm-3,39.95633,R,ugm-3,81.11244,R,ugm-3
14-01-2021,09:00,32.46432,R,ugm-3,49.96525,R,ugm-3,99.74318,R,ugm-3
14-01-2021,10:00,28.42570,R,ugm-3,42.88391,R,ugm-3,86.46937,R,ugm-3
14-01-2021,11:00,30.10328,R,ugm-3,44.15158,R,ugm-3,90.30929,R,ugm-3
14-01-2021,12:00,32.89925,R,ugm-3,34.79199,R,ugm-3,85.23680,R,ugm-3
14-01-2021,13:00,37.77666,R,ugm-3,34.37695,R,ugm-3,92.30036,R,ugm-3
14-01-2021,14:00,28.92276,R,ugm-3,33.73082,R,ugm-3,78.07843,R,ugm-3
14-01-2021,15:00,32.77498,R,ugm-3,29.43597,R,ugm-3,79.69025,R,ugm-3
14-01-2021,16:00,42.52981,R,ugm-3,35.85909,R,ugm-3,101.07056,R,ugm-3
14-01-2021,17:00,92.26701,R,ugm-3,57.15892,R,ugm-3,198.63304,R,ugm-3
14-01-2021,18:00,60.33082,R,ugm-3,43.02908,R,ugm-3,135.53505,R,ugm-3
14-01-2021,19:00,38.24266,R,ugm-3,39.77787,R,ugm-3,98.41580,R,ugm-3
14-01-2021,20:00,52.99917,R,ugm-3,33.88602,R,ugm-3,115.15027,R,ugm-3
14-01-2021,21:00,23.48615,R,ugm-3,24.00498,R,ugm-3,60.01657,R,ugm-3
14-01-2021,22:00,13.57599,R,ugm-3,30.09831,R,ugm-3,50.91453,R,ugm-3
14-01-2021,23:00,6.27540,R,ugm-3,13.22776,R,ugm-3,22.84991,R,ugm-3
14-01-2021,24:00,7.33165,R,ugm-3,12.22448,R,ugm-3,23.46619,R,ugm-3
15-01-2021,01:00,8.66181,R,ugm-3,14.40227,R,ugm-3,27.68352,R,ugm-3
15-01-2021,02:00,4.80751,R,ugm-3,13.21702,R,ugm-3,20.58843,R,ugm-3
15-01-2021,03:00,11.71831,R,ugm-3,16.95333,R,ugm-3,34.92115,R,ugm-3
15-01-2021,04:00,4.63137,R,ugm-3,7.72233,R,ugm-3,14.82367,R,ugm-3
15-01-2021,05:00,3.26372,R,ugm-3,8.67909,R,ugm-3,13.68339,R,ugm-3
15-01-2021,06:00,7.30451,R,ugm-3,12.17569,R,ugm-3,23.37579,R,ugm-3
15-01-2021,07:00,13.39679,R,ugm-3,18.27566,R,ugm-3,38.81712,R,ugm-3
15-01-2021,08:00,52.43709,R,ugm-3,37.42678,R,ugm-3,117.82919,R,ugm-3
15-01-2021,09:00,52.96550,R,ugm-3,37.23421,R,ugm-3,118.44684,R,ugm-3
15-01-2021,10:00,64.74597,R,ugm-3,50.57635,R,ugm-3,149.85212,R,ugm-3
15-01-2021,11:00,30.05730,R,ugm-3,31.68955,R,ugm-3,77.77677,R,ugm-3
15-01-2021,12:00,29.34239,R,ugm-3,28.88977,R,ugm-3,73.88080,R,ugm-3
15-01-2021,13:00,48.58279,R,ugm-3,36.49492,R,ugm-3,110.98749,R,ugm-3
15-01-2021,14:00,56.44680,R,ugm-3,37.59770,R,ugm-3,124.14825,R,ugm-3
15-01-2021,15:00,51.50460,R,ugm-3,38.61902,R,ugm-3,117.59163,R,ugm-3
15-01-2021,16:00,66.23796,R,ugm-3,49.28642,R,ugm-3,150.84986,R,ugm-3
15-01-2021,17:00,78.51576,R,ugm-3,60.10806,R,ugm-3,180.49721,R,ugm-3
15-01-2021,18:00,133.12866,R,ugm-3,64.74134,R,ugm-3,268.86910,R,ugm-3
15-01-2021,19:00,123.27533,R,ugm-3,61.74758,R,ugm-3,250.76712,R,ugm-3
15-01-2021,20:00,119.04804,R,ugm-3,52.45543,R,ugm-3,234.99321,R,ugm-3
15-01-2021,21:00,85.69594,R,ugm-3,42.16189,R,ugm-3,173.56049,R,ugm-3
15-01-2021,22:00,44.85282,R,ugm-3,36.08510,R,ugm-3,104.85847,R,ugm-3
15-01-2021,23:00,24.52452,R,ugm-3,35.51688,R,ugm-3,73.12061,R,ugm-3
15-01-2021,24:00,16.59834,R,ugm-3,29.66321,R,ugm-3,55.11365,R,ugm-3
16-01-2021,01:00,6.55168,R,ugm-3,19.85776,R,ugm-3,29.90353,R,ugm-3
16-01-2021,02:00,1.08849,R,ugm-3,7.80664,R,ugm-3,9.58691,R,ugm-3
16-01-2021,03:00,0.99519,R,ugm-3,7.18799,R,ugm-3,8.71393,R,ugm-3
16-01-2021,04:00,0.62200,R,ugm-3,5.56983,R,ugm-3,6.52354,R,ugm-3
16-01-2021,05:00,0.40430,R,ugm-3,5.85601,R,ugm-3,6.47592,R,ugm-3
16-01-2021,06:00,0.77749,R,ugm-3,6.33136,R,ugm-3,7.52350,R,ugm-3
16-01-2021,07:00,4.01187,R,ugm-3,10.51454,R,ugm-3,16.66598,R,ugm-3
16-01-2021,08:00,5.78455,R,ugm-3,13.60574,R,ugm-3,22.47526,R,ugm-3